This is the latest recevied weather packets stored in our database for station/object W0DXV. If no packets are shown the sender has not sent any weather packets the latest 10 day(s).
| Time | Temp. | Humidity | Pressure | Rain* | Wind** | Luminosity | Snow |
|---|---|---|---|---|---|---|---|
| 1777824849 | 15.56° C | 36% | 1016.1 hPa | 0 mm | - | 744 W/m² | - |
| 1777824546 | 15.56° C | 38% | 1016.3 hPa | 0 mm | - | 739 W/m² | - |
| 1777824242 | 15.56° C | 35% | 1016.3 hPa | 0 mm | - | 732 W/m² | - |
| 1777823938 | 15.56° C | 37% | 1016.3 hPa | 0 mm | - | 727 W/m² | - |
| 1777823635 | 15° C | 37% | 1016.2 hPa | 0 mm | - | 721 W/m² | - |
| 1777823332 | 14.44° C | 39% | 1016.3 hPa | 0 mm | - | 714 W/m² | - |
| 1777823029 | 15° C | 37% | 1016.5 hPa | 0 mm | - | 709 W/m² | - |
| 1777822727 | 15° C | 38% | 1016.4 hPa | 0 mm | - | 700 W/m² | - |
| 1777822425 | 13.89° C | 40% | 1016.5 hPa | 0 mm | - | 691 W/m² | - |
| 1777822122 | 13.33° C | 39% | 1016.5 hPa | 0 mm | - | 685 W/m² | - |
| 1777821820 | 13.89° C | 39% | 1016.5 hPa | 0 mm | - | 675 W/m² | - |
| 1777821517 | 13.89° C | 38% | 1016.5 hPa | 0 mm | - | 668 W/m² | - |
| 1777821215 | 14.44° C | 35% | 1016.6 hPa | 0 mm | - | 658 W/m² | - |
| 1777820911 | 13.89° C | 42% | 1016.6 hPa | 0 mm | - | 648 W/m² | - |
| 1777820608 | 14.44° C | 43% | 1016.5 hPa | 0 mm | - | 639 W/m² | - |
| 1777820304 | 13.33° C | 44% | 1016.7 hPa | 0 mm | - | 629 W/m² | - |
| 1777820002 | 13.89° C | 43% | 1016.4 hPa | 0 mm | - | 619 W/m² | - |
| 1777819699 | 14.44° C | 42% | 1016.5 hPa | 0 mm | - | 608 W/m² | - |
| 1777819398 | 13.89° C | 45% | 1016.5 hPa | 0 mm | - | 594 W/m² | - |
| 1777819094 | 13.89° C | 43% | 1016.4 hPa | 0 mm | - | 585 W/m² | - |
| 1777818791 | 13.89° C | 45% | 1016.4 hPa | 0 mm | - | 575 W/m² | - |
| 1777818487 | 13.89° C | 46% | 1016.4 hPa | 0 mm | - | 560 W/m² | - |
| 1777818184 | 13.33° C | 47% | 1016.5 hPa | 0 mm | - | 544 W/m² | - |
| 1777817880 | 13.33° C | 46% | 1016.5 hPa | 0 mm | - | 529 W/m² | - |
| 1777817578 | 12.78° C | 45% | 1016.5 hPa | 0 mm | - | 518 W/m² | - |
* Rain latest hour (hover to see other rain measurements)
** Current wind speed in m/s (hover to see current wind gust speed)